Tracking 17140 objects as of 1-July-2015
HD Live streaming from Space Station

FALCON 9 R/B

Track FALCON 9 R/B now!
10-day predictions
FALCON 9 R/B is classified as:


NORAD ID: 37253
Int'l Code: 2010-066K
Perigee: 294.7 km
Apogee: 10,417.7 km
Inclination: 34.5 °
Period: 210.6 minutes
Semi major axis: 11727 km
RCS: 20.0149 m2 (large)
Launch date: December 8, 2010
Source: United States (US)

Note: This is a ROCKET BODY
Your satellite tracking list
Your tracking list is empty





NASA's NSSDC Master Catalog

Two Line Element Set (TLE):
1 37253U 10066K   15181.80158124  .00006914  00000-0  63750-3 0  9992
2 37253 034.5312 335.1153 4316054 096.9349 312.5565 06.83617823111266

Source of the keplerian elements: AFSPC

N2YO: 275